EW6618 Weather Reports


Display with metric or nautical units.
time (UTC)temp
F
wind
direction
speed
MPH
gust
MPH
rain 1hr
in
rain 24hr
in
rain mn
in
humidity
%
barometer
mb
20260906173629 68 96 0.0 1.0 0.00 0.03 0.03 92 1016.0
20260906172553 68 290 0.0 1.0 0.00 0.03 0.03 92 1016.4
20260906170431 67 283 0.0 1.0 0.00 0.03 0.03 91 1016.1
20260906165440 67 339 0.0 1.0 0.00 0.03 0.03 91 1015.8
20260906164501 67 95 0.0 0.0 0.00 0.03 0.03 91 1015.0
20260906162356 66 101 0.0 0.0 0.00 0.03 0.03 90 1015.2
20260906161329 66 111 1.0 3.0 0.00 0.03 0.03 89 1015.3
20260906160351 67 110 1.0 4.0 0.00 0.03 0.03 89 1015.2
20260906155329 67 114 1.0 4.0 0.00 0.03 0.03 88 1015.1
20260906154343 67 84 0.0 3.0 0.00 0.03 0.03 88 1015.3
20260906153400 67 246 0.0 1.0 0.00 0.03 0.03 88 1014.7
20260906152328 67 99 0.0 3.0 0.00 0.03 0.03 87 1014.1
20260906151259 67 89 1.0 3.0 0.00 0.03 0.03 85 1013.9
20260906145057 67 48 1.0 4.0 0.00 0.03 0.03 84 1013.7
20260906144046 68 92 1.0 4.0 0.05 0.03 0.03 83 1013.8
20260906143027 68 81 0.0 3.0 0.09 0.03 0.03 81 1013.8
20260906141958 68 136 0.0 3.0 0.00 0.01 0.01 79 1013.9
20260906140933 68 359 1.0 6.0 0.00 0.01 0.01 79 1014.0
20260906134721 67 46 0.0 3.0 0.00 0.01 0.01 83 1013.5
20260906132533 67 39 1.0 4.0 0.00 0.00 0.00 84 1013.9
20260906131525 67 319 2.0 4.0 0.00 0.00 0.00 84 1014.3
20260906124253 69 296 3.0 9.0 0.00 0.00 0.00 87 1013.6
20260906123311 72 354 3.0 9.0 0.00 0.00 0.00 90 1014.0
20260906121111 72 188 1.0 3.0 0.00 0.00 0.00 89 1013.0
20260906112626 72 131 0.0 1.0 0.00 0.00 0.00 88 1012.3
20260906111623 72 117 0.0 1.0 0.00 0.00 0.00 88 1012.4
20260906110606 72 138 0.0 1.0 0.00 0.00 0.00 88 1012.5
20260906105540 72 111 0.0 2.0 0.00 0.00 0.00 88 1012.4
20260906103434 72 136 0.0 2.0 0.00 0.00 0.00 88 1012.5
20260906102422 72 140 1.0 3.0 0.00 0.00 0.00 88 1012.5
20260906100347 72 136 0.0 1.0 0.00 0.00 0.00 87 1012.4
20260906095316 72 130 0.0 1.0 0.00 0.00 0.00 87 1012.5
20260906094332 72 97 0.0 2.0 0.00 0.00 0.00 87 1012.5
20260906093345 72 117 0.0 1.0 0.00 0.00 0.00 87 1012.6
20260906092350 72 101 0.0 1.0 0.00 0.00 0.00 87 1012.7
20260906090229 71 111 0.0 0.0 0.00 0.00 0.00 87 1012.4
20260906085239 72 111 0.0 0.0 0.00 0.00 0.00 87 1012.6
20260906084211 72 111 0.0 2.0 0.00 0.00 0.00 87 1012.5
20260906083226 72 126 0.0 1.0 0.00 0.00 0.00 87 1012.7
20260906082202 71 109 0.0 0.0 0.00 0.00 0.00 87 1012.8
20260906081135 71 104 0.0 0.0 0.00 0.00 0.00 87 1012.7
20260906080127 71 104 0.0 0.0 0.00 0.00 0.00 87 1012.8
20260906075114 71 110 0.0 2.0 0.00 0.00 0.00 87 1012.8
20260906074051 71 140 0.0 2.0 0.00 0.00 0.00 87 1012.8
20260906073046 71 140 0.0 1.0 0.00 0.00 0.00 87 1012.7
20260906072040 71 158 0.0 2.0 0.00 0.00 0.00 87 1012.8
20260906071015 71 154 0.0 2.0 0.00 0.00 0.00 86 1012.8
20260906065946 71 217 0.0 2.0 0.00 0.00 0.00 86 1012.7
20260906064914 71 153 0.0 2.0 0.00 0.00 0.00 86 1012.7
20260906063906 71 161 0.0 0.0 0.00 0.00 0.00 86 1012.8
20260906060548 71 95 0.0 3.0 0.00 0.00 0.00 86 1012.8
20260906055535 71 236 0.0 3.0 0.00 0.00 0.00 86 1012.9
20260906053338 71 198 1.0 3.0 0.00 0.00 0.00 86 1013.1
20260906052308 71 139 0.0 3.0 0.00 0.00 0.00 86 1013.2
20260906051324 71 288 0.0 2.0 0.00 0.00 0.00 86 1013.2
20260906050349 72 242 1.0 2.0 0.00 0.00 0.00 86 1013.2
20260906045342 72 276 1.0 3.0 0.00 0.00 0.00 86 1013.3
20260906044323 72 284 2.0 3.0 0.00 0.00 0.00 86 1013.3
20260906043326 72 285 1.0 3.0 0.00 0.00 0.00 86 1013.2
20260906042337 72 269 1.0 3.0 0.00 0.00 0.00 85 1013.2
20260906041306 72 290 1.0 3.0 0.00 0.00 0.00 85 1013.2
20260906040330 72 309 0.0 3.0 0.00 0.00 0.00 84 1013.0
20260906035306 72 250 0.0 3.0 0.00 0.00 0.00 84 1013.0
20260906034233 72 286 0.0 3.0 0.00 0.00 0.00 83 1013.0
20260906033258 72 313 1.0 1.0 0.00 0.00 0.00 83 1012.8
20260906032314 72 307 1.0 4.0 0.00 0.00 0.00 83 1012.7
20260906030221 72 295 2.0 5.0 0.00 0.00 0.00 83 1012.6
20260906025230 73 8 1.0 9.0 0.00 0.00 0.00 83 1012.6
20260906024235 72 3 3.0 9.0 0.00 0.00 0.00 83 1012.5
20260906023208 73 44 4.0 9.0 0.00 0.00 0.00 83 1012.6
20260906014805 73 263 6.0 12.0 0.00 0.00 0.00 85 1012.6
20260906013750 73 11 8.0 12.0 0.00 0.00 0.00 85 1012.6
20260906012733 74 320 7.0 11.0 0.00 0.00 0.00 84 1012.6
20260906011729 74 275 8.0 11.0 0.00 0.00 0.00 85 1012.7
20260906010726 74 252 6.0 11.0 0.00 0.00 0.00 84 1012.7
20260906005655 74 215 6.0 10.0 0.00 0.00 0.00 83 1012.7
20260906004635 74 290 6.0 9.0 0.00 0.00 0.00 83 1012.5
20260906003606 75 314 6.0 10.0 0.00 0.00 0.00 82 1012.6
20260906000315 76 229 7.0 11.0 0.00 0.00 0.00 78 1012.6
20260905234203 77 288 6.0 11.0 0.00 0.00 0.00 79 1012.7
20260905233144 77 8 6.0 10.0 0.00 0.00 0.00 78 1012.6
20260905231026 77 262 5.0 9.0 0.00 0.00 0.00 76 1012.7
20260905224856 78 250 4.0 9.0 0.00 0.00 0.00 74 1012.8
20260905223905 78 256 5.0 9.0 0.00 0.00 0.00 75 1012.9
20260905222919 78 304 5.0 7.0 0.00 0.00 0.00 74 1013.0
20260905222112 79 241 4.0 9.0 0.00 0.00 0.00 74 1013.0
20260905221103 78 240 4.0 8.0 0.00 0.00 0.00 75 1013.1
20260905220045 78 264 4.0 8.0 0.00 0.00 0.00 74 1013.3
20260905215032 78 338 4.0 8.0 0.00 0.00 0.00 74 1013.3
20260905214036 78 244 4.0 8.0 0.00 0.00 0.00 75 1013.4
20260905213047 78 281 5.0 8.0 0.00 0.00 0.00 75 1013.5
20260905212017 78 236 6.0 9.0 0.00 0.00 0.00 75 1013.6
20260905205819 78 271 5.0 8.0 0.00 0.00 0.00 75 1013.6
20260905204750 78 221 5.0 8.0 0.00 0.00 0.00 74 1013.6
20260905203719 78 247 6.0 8.0 0.00 0.00 0.00 74 1013.8
20260905202659 79 173 5.0 8.0 0.00 0.00 0.00 73 1014.0
20260905201705 78 209 4.0 8.0 0.00 0.00 0.00 74 1014.0
20260905200648 79 244 4.0 8.0 0.00 0.00 0.00 75 1014.0
20260905195627 78 221 5.0 8.0 0.00 0.00 0.00 74 1014.1
20260905194641 78 39 5.0 8.0 0.00 0.00 0.00 75 1014.5
20260905193624 78 212 4.0 8.0 0.00 0.00 0.00 75 1014.5
20260905192644 77 248 4.0 8.0 0.00 0.00 0.00 76 1014.3
20260905191655 77 224 4.0 7.0 0.00 0.00 0.00 77 1014.6
20260905190712 75 61 4.0 8.0 0.00 0.00 0.00 78 1014.6
20260905185719 76 217 5.0 8.0 0.00 0.00 0.00 78 1014.9
20260905184741 76 280 4.0 8.0 0.00 0.00 0.00 76 1014.9